Regional Weather Roundup
Issued by NWS

Home | Current Version | Previous Version | Graphics & Text | Print | Product List | Glossary On
Versions: 1 2 3 4 5 6 7 8 9 10 11 12 13 14 15 16 17 18 19 20 21 22 23 24 25 26 27 28 29 30 31 32 33 34 35 36 37 38 39 40 41 42 43 44 45 46 47 48 49 50
000
ASUS43 KLMK 261310
RWRKY
KENTUCKY REGIONAL WEATHER ROUNDUP
NATIONAL WEATHER SERVICE LOUISVILLE KY
800 AM EST FRI DEC 26 2014

NOTE "FAIR" INDICATES FEW OR NO CLOUDS BELOW 12,000 FEET
WITH NO SIGNIFICANT WEATHER AND/OR OBSTRUCTIONS TO VISIBILITY.

KYZ001>023-026-027-061>063-070>075-261400-
WESTERN AND SOUTH CENTRAL KENTUCKY

CITY           SKY/WX    TMP DP  RH WIND       PRES   REMARKS
PADUCAH        PTCLDY    41  34  76 S7        30.19S
HENDERSON      CLEAR     37  32  81 S12       30.21R WCI  30
OWENSBORO      CLEAR     35  33  92 S8        30.24R WCI  28
HOPKINSVILLE   PTCLDY    35  33  91 SE5       30.25R WCI  31
BOWLING GREEN  CLEAR     28  25  88 CALM      30.28R
GLASGOW        PTCLDY    32  32 100 CALM      30.28R
$$

KYZ024-025-028>034-038-045-046-053-261400-
NORTH CENTRAL KENTUCKY

CITY           SKY/WX    TMP DP  RH WIND       PRES   REMARKS
LOUISVILLE/SDF PTCLDY    33  31  92 SE7       30.24S WCI  27
LOUISVILLE/LOU CLEAR     36  32  85 S6        30.25S WCI  31
FORT KNOX      CLEAR     32  30  93 S7        30.23R WCI  25
$$

KYZ035>037-039>044-047>052-055>060-089>105-261400-
NORTHEAST KENTUCKY

CITY           SKY/WX    TMP DP  RH WIND       PRES   REMARKS
LEXINGTON      CLEAR     32  30  92 S9        30.27R WCI  24
COVINGTON      PTCLDY    31  26  82 S7        30.23R WCI  24
FRANKFORT      CLEAR     29  27  92 S6        30.25S WCI  23
$$

KYZ054-064>069-076>088-106>120-261400-
SOUTHEAST KENTUCKY

CITY           SKY/WX    TMP DP  RH WIND       PRES   REMARKS
JACKSON        PTCLDY    32  27  81 CALM      30.29R
LONDON         PTCLDY    26  21  81 CALM      30.30R
SOMERSET       CLEAR     27  27 100 CALM      30.32R
MIDDLESBORO    PTCLDY    25  24  96 CALM      30.32S
MONTICELLO     SUNNY     22  20  92 CALM      30.33R
$$



USA.gov is the U.S. government's official web portal to all federal, state and local government web resources and services.